| time (UTC) | temp C | wind direction | speed KPH | gust KPH | rain 1hr cm | rain 24hr cm | rain mn cm | humidity % | barometer mb |
| 20260504204542 | 25 | 330 | 0.0 | 12.9 | 0.00 | 0.00 | 0.00 | 51 | 1010.3 |
| 20260504203040 | 25 | 335 | 0.0 | 9.7 | 0.00 | 0.00 | 0.00 | 50 | 1010.3 |
| 20260504201538 | 25 | 273 | 1.6 | 11.3 | 0.00 | 0.00 | 0.00 | 47 | 1010.3 |
| 20260504200036 | 25 | 321 | 1.6 | 9.7 | 0.00 | 0.00 | 0.00 | 49 | 1010.6 |
| 20260504194537 | 25 | 297 | 1.6 | 11.3 | 0.00 | 0.00 | 0.00 | 47 | 1010.4 |
| 20260504193033 | 24 | 341 | 1.6 | 8.0 | 0.00 | 0.00 | 0.00 | 50 | 1010.4 |
| 20260504191538 | 24 | 323 | 0.0 | 9.7 | 0.00 | 0.00 | 0.00 | 51 | 1010.5 |
| 20260504190030 | 24 | 304 | 0.0 | 8.0 | 0.00 | 0.00 | 0.00 | 56 | 1010.5 |
| 20260504184528 | 23 | 5 | 1.6 | 4.8 | 0.00 | 0.00 | 0.00 | 50 | 1010.6 |
| 20260504183025 | 23 | 298 | 0.0 | 9.7 | 0.00 | 0.00 | 0.00 | 52 | 1010.6 |
| 20260504181522 | 22 | 15 | 1.6 | 8.0 | 0.00 | 0.00 | 0.00 | 53 | 1010.6 |
| 20260504180017 | 22 | 350 | 0.0 | 6.4 | 0.00 | 0.00 | 0.00 | 55 | 1010.6 |
| 20260504174512 | 22 | 348 | 0.0 | 4.8 | 0.00 | 0.00 | 0.00 | 57 | 1010.6 |
| 20260504173009 | 21 | 340 | 0.0 | 6.4 | 0.00 | 0.00 | 0.00 | 56 | 1010.7 |
| 20260504171506 | 20 | 344 | 0.0 | 3.2 | 0.00 | 0.00 | 0.00 | 60 | 1010.7 |
| 20260504081537 | 10 | 0.0 | 0.0 | 0.00 | 0.00 | 0.00 | 78 | 1009.9 | |
| 20260504044535 | 13 | 0.0 | 0.0 | 0.00 | 0.00 | 0.00 | 70 | 1010.0 | |
| 20260504043030 | 14 | 0.0 | 0.0 | 0.00 | 0.00 | 0.00 | 68 | 1009.9 | |
| 20260504041525 | 15 | 0.0 | 0.0 | 0.00 | 0.00 | 0.00 | 66 | 1009.9 | |
| 20260504040021 | 15 | 0.0 | 0.0 | 0.00 | 0.00 | 0.00 | 64 | 1009.9 | |
| 20260504034517 | 16 | 0.0 | 0.0 | 0.00 | 0.00 | 0.00 | 63 | 1009.8 | |
| 20260504033013 | 16 | 0.0 | 0.0 | 0.00 | 0.00 | 0.00 | 62 | 1009.8 | |
| 20260504031507 | 17 | 0.0 | 0.0 | 0.00 | 0.00 | 0.00 | 61 | 1009.7 | |
| 20260504030003 | 18 | 213 | 0.0 | 0.0 | 0.00 | 0.00 | 0.00 | 61 | 1009.8 |
| 20260504024502 | 18 | 209 | 0.0 | 0.0 | 0.00 | 0.00 | 0.00 | 61 | 1009.8 |
| 20260504023002 | 19 | 204 | 0.0 | 0.0 | 0.00 | 0.00 | 0.00 | 60 | 1009.8 |
| 20260504021600 | 20 | 311 | 0.0 | 0.0 | 0.00 | 0.00 | 0.00 | 58 | 1009.9 |
| 20260504020058 | 21 | 350 | 0.0 | 0.0 | 0.00 | 0.00 | 0.00 | 58 | 1010.1 |
| 20260504014605 | 21 | 350 | 0.0 | 0.0 | 0.00 | 0.00 | 0.00 | 54 | 1010.1 |
| 20260504013058 | 22 | 241 | 0.0 | 3.2 | 0.00 | 0.00 | 0.00 | 52 | 1010.3 |
| 20260504011554 | 23 | 306 | 0.0 | 4.8 | 0.00 | 0.00 | 0.00 | 49 | 1010.5 |
| 20260504010100 | 24 | 240 | 3.2 | 12.9 | 0.00 | 0.00 | 0.00 | 50 | 1010.6 |
| 20260504004550 | 25 | 317 | 0.0 | 11.3 | 0.00 | 0.00 | 0.00 | 46 | 1010.7 |
| 20260504003053 | 26 | 289 | 1.6 | 9.7 | 0.00 | 0.00 | 0.00 | 43 | 1010.8 |
| 20260504001548 | 26 | 248 | 1.6 | 8.0 | 0.00 | 0.00 | 0.00 | 44 | 1010.9 |
| 20260504000112 | 27 | 331 | 3.2 | 14.5 | 0.00 | 0.00 | 0.00 | 45 | 1011.1 |
| 20260503234551 | 27 | 326 | 1.6 | 9.7 | 0.00 | 0.00 | 0.00 | 45 | 1011.2 |
| 20260503233038 | 26 | 250 | 0.0 | 14.5 | 0.00 | 0.00 | 0.00 | 44 | 1011.3 |
| 20260503231536 | 26 | 308 | 3.2 | 12.9 | 0.00 | 0.00 | 0.00 | 47 | 1011.6 |
| 20260503230033 | 26 | 245 | 0.0 | 14.5 | 0.00 | 0.00 | 0.00 | 51 | 1011.7 |
| 20260503224532 | 26 | 278 | 1.6 | 14.5 | 0.00 | 0.00 | 0.00 | 46 | 1011.9 |
| 20260503223037 | 26 | 355 | 0.0 | 16.1 | 0.00 | 0.00 | 0.00 | 43 | 1012.1 |
| 20260503221530 | 26 | 270 | 0.0 | 14.5 | 0.00 | 0.00 | 0.00 | 50 | 1012.2 |
| 20260503220025 | 26 | 342 | 0.0 | 11.3 | 0.00 | 0.00 | 0.00 | 45 | 1012.4 |
| 20260503214523 | 26 | 265 | 4.8 | 14.5 | 0.00 | 0.00 | 0.00 | 43 | 1012.6 |
| 20260503213019 | 25 | 284 | 3.2 | 17.7 | 0.00 | 0.00 | 0.00 | 45 | 1012.6 |
| 20260503211517 | 25 | 274 | 0.0 | 17.7 | 0.00 | 0.00 | 0.00 | 51 | 1012.8 |
| 20260503210013 | 25 | 271 | 0.0 | 12.9 | 0.00 | 0.00 | 0.00 | 53 | 1013.0 |